Location: Newark
(43.0117°N, 7.5572°W)
Time: 11:13:10
(UTC+00:00)

X-37B - Visible Passes

Search period start: 29 September 2020 00:00
Search period end: 09 October 2020 00:00
Orbit: 386 x 387 km, 45.0° (Epoch: 18 September)

Date Brightness Start Highest point End Pass type
(mag) Time Alt. Az. Time Alt. Az. Time Alt. Az.
01 Oct 3.0 20:05:38 10° SW 20:06:26 16° SSW 20:06:26 16° SSW visible
02 Oct 2.2 19:07:43 10° SSW 19:10:07 20° SE 19:10:54 18° SE visible
03 Oct 1.0 19:44:47 10° SW 19:47:32 51° S 19:47:32 51° S visible
04 Oct 1.5 18:46:30 10° SW 18:49:24 33° SSE 18:51:46 14° E visible
04 Oct 3.0 20:22:44 10° W 20:24:03 22° W 20:24:03 22° W visible
05 Oct 0.5 19:24:08 10° WSW 19:27:18 85° SSE 19:28:10 45° ENE visible
06 Oct 1.9 20:02:16 10° W 20:04:31 39° WNW 20:04:31 39° WNW visible
07 Oct 0.7 19:03:36 10° W 19:06:47 71° NNW 19:08:32 24° ENE visible
07 Oct 4.0 20:40:26 10° WNW 20:40:48 13° WNW 20:40:48 13° WNW visible
08 Oct 1.0 19:41:48 10° W 19:44:47 56° NNW 19:44:47 56° NNW visible
